Location: Unspecified
(0.0000°N, 0.0000°E)
Time: 13:32:10
(UTC+00:00)

LightSail 2 - Pass Details

Date: 12 September 2019
Orbit: 699 x 732 km, 24.0° (Epoch: 17 September)

Event Time Altitude Azimuth Distance (km) Brightness Sun altitude
Rises 18:32:05 0° 272° (W) 3,127 10.9 -8.9°
Reaches altitude 10° 18:34:55 10° 259° (WSW) 2,202 9.1 -9.6°
Maximum altitude 18:39:10 25° 204° (SSW) 1,418 6.9 -10.7°
Drops below altitude 10° 18:43:25 10° 148° (SSE) 2,187 7.3 -11.7°
Enters shadow 18:44:42 - 141° (SE) 2,591 7.6 -12.1°
